Lid_Strength_Index
4 4 4 3 4 4 3 3 4 4 3 3 2 2 3 3 3 5 7 4 3 0 -0 3 4 7 8 10 9 10 13 14 13 11 10 8 9 7 6 6 5 4 5 4 3
4 4 4 4 4 3 3 3 4 4 3 3 3 3 3 3 6 7 4 0 -1 -1 3 5 6 7 10 10 10 12 14 13 10 9 9 8 8 8 8 6 6 5 4 3 3
4 4 4 4 4 4 4 4 4 4 4 3 3 3 4 4 8 8 -1 -2 -0 -1 3 5 6 8 10 10 11 12 13 11 10 8 7 8 7 8 9 9 7 6 6 4 4
4 4 4 4 5 4 4 4 4 4 4 4 3 3 3 5 14 4 -1 -1 -1 0 4 5 7 11 12 12 9 12 10 10 9 8 8 8 7 9 8 9 7 4 4 4 5
4 4 4 4 5 4 5 5 5 4 5 4 4 4 6 9 9 4 -0 -1 0 2 5 7 9 10 12 11 11 10 10 9 9 8 8 7 8 9 9 7 6 3 4 5 5
4 4 4 5 4 4 4 5 5 4 4 5 5 4 7 13 6 4 4 2 3 5 6 7 9 8 10 10 11 10 10 9 9 9 8 8 8 8 8 7 6 4 5 5 4
4 5 5 5 5 4 4 5 5 5 5 5 4 5 9 10 5 4 5 4 4 5 6 5 6 8 8 11 9 9 11 10 10 10 10 9 11 10 7 8 7 7 6 4 4
5 5 5 5 5 5 5 5 5 5 5 4 4 6 10 5 5 5 5 5 3 3 4 4 4 5 7 7 8 10 12 14 11 10 9 10 14 10 8 8 8 7 7 4 4
5 5 5 6 6 5 5 5 5 5 4 4 6 7 11 4 6 5 4 5 4 3 3 3 5 7 7 10 12 11 14 14 12 9 9 9 12 9 8 8 9 8 8 8 5
5 6 6 5 5 5 5 5 5 5 5 5 5 8 7 9 5 3 4 4 5 5 5 6 7 9 10 12 16 13 13 12 12 9 9 11 10 9 8 8 8 9 7 9 8
5 5 5 5 5 5 6 8 9 10 7 8 8 8 7 5 3 5 4 4 5 6 9 8 10 12 10 10 10 10 11 12 10 8 9 10 11 9 8 8 9 9 8 8 9
5 5 5 5 4 5 6 10 8 7 10 7 6 6 5 4 7 6 4 7 7 9 8 9 12 9 8 8 10 10 11 11 9 8 10 11 11 9 8 9 8 8 8 8 7
5 5 4 4 4 5 7 5 3 3 8 8 6 7 6 5 7 7 5 6 8 9 9 11 10 7 8 10 11 11 11 11 11 9 9 10 12 10 8 8 7 8 7 7 7
5 4 4 4 6 6 8 5 3 3 11 10 8 6 6 6 8 4 4 5 7 10 8 9 7 8 10 11 10 12 8 9 10 12 14 10 16 11 9 9 8 8 8 8 7
5 4 4 3 8 8 6 3 3 4 20 8 8 4 5 7 6 6 4 5 9 9 9 10 9 9 11 10 9 10 8 9 9 12 13 12 15 13 10 10 9 8 6 6 7
4 4 3 5 5 5 3 3 4 13 19 10 7 8 8 8 7 6 6 4 5 8 8 8 6 8 9 8 8 7 9 10 11 13 16 13 14 14 12 10 9 8 7 6 5
4 3 3 3 7 4 3 5 13 18 8 10 10 8 9 10 9 9 9 9 11 13 13 9 9 7 8 10 8 9 12 17 18 17 17 12 13 12 10 9 8 8 7 6 5
3 3 4 3 3 2 4 9 17 11 11 8 8 8 10 9 10 10 11 13 8 9 12 14 14 9 7 9 11 11 12 16 19 18 15 11 14 13 9 8 8 7 7 6 6
3 4 4 1 0 2 7 15 14 11 8 9 9 12 11 9 10 11 12 12 11 10 13 13 13 7 7 7 8 11 12 11 14 13 16 14 13 10 8 9 8 8 7 7 6
5 5 4 1 2 4 9 14 12 8 7 8 13 11 13 11 12 13 13 10 11 9 8 12 15 8 8 7 8 10 9 13 14 19 21 16 14 15 12 11 9 9 8 7 6
5 7 3 -0 2 7 13 11 9 7 7 10 12 13 12 13 12 14 13 11 9 10 9 10 13 13 10 10 11 11 12 11 12 15 19 21 19 11 12 10 10 9 8 7 7
5 9 2 1 9 8 11 10 8 8 7 9 9 10 12 12 13 13 13 11 8 8 12 10 13 16 14 10 8 9 11 11 17 18 17 18 19 10 10 9 9 8 7 6 6
7 6 1 2 12 11 9 9 8 9 9 10 11 10 9 12 15 12 11 8 8 9 11 10 14 18 16 12 9 11 10 10 12 14 17 19 18 9 9 9 8 8 7 6 5
6 10 6 5 7 9 11 11 11 8 9 9 10 9 10 12 11 13 12 9 7 8 7 9 13 15 18 14 11 11 10 10 12 17 16 16 15 12 11 10 9 8 7 6 5
5 8 6 11 9 9 9 10 11 12 9 8 10 10 12 14 13 13 11 10 8 7 9 11 15 13 12 12 12 11 10 11 13 13 15 14 14 12 10 10 8 7 6 6 6
7 8 6 8 8 9 9 11 11 11 10 11 11 10 10 13 12 14 12 11 11 9 11 10 15 13 14 12 12 13 11 11 12 12 12 11 13 9 8 8 8 7 6 7 6
4 3 6 8 9 10 10 10 10 9 8 8 9 10 11 10 9 8 8 8 10 11 12 12 14 15 18 13 13 16 13 12 11 11 12 15 12 9 9 8 8 7 6 7 7